Wind_Speed
36 37 38 39 36 37 39 42 47 46 42 48 52 57 53 48 45 44 43 43 38 34 31 31 29 27 28 29 34 37 39 39 41 42 42 39 38 38 38 40 40 40 38 37
39 41 38 35 35 34 37 42 47 52 43 46 53 61 51 45 45 38 34 32 31 28 16 16 14 17 21 28 34 39 40 41 44 45 40 38 37 39 38 37 38 40 40 38
40 40 38 37 37 40 43 42 50 52 46 44 49 57 33 31 38 34 20 18 12 6 23 18 19 15 18 20 22 28 35 40 42 40 38 38 39 41 41 40 39 40 41 39
35 33 30 25 25 23 37 29 36 40 39 27 26 27 35 34 20 25 8 7 2 20 32 32 33 32 26 28 32 31 30 28 26 30 32 35 38 39 36 36 34 35 38 38
29 29 29 31 31 25 33 25 27 31 33 37 17 13 32 29 26 7 5 6 14 34 22 46 37 33 29 32 32 32 28 25 24 26 27 30 36 37 37 37 36 36 36 36
31 27 27 28 33 34 32 30 27 28 28 12 23 19 60 12 3 9 4 28 20 35 41 38 29 33 31 32 32 29 18 17 21 26 30 32 33 34 35 37 37 36 36 38
31 35 40 43 40 37 35 29 6 4 3 10 6 14 39 28 32 34 25 39 48 35 26 26 28 33 33 37 30 23 17 15 20 26 30 29 29 28 29 30 31 33 36 39
25 40 27 22 27 26 27 22 14 7 5 15 26 16 51 45 52 54 37 33 26 17 19 22 26 21 20 18 15 14 14 15 21 25 27 26 22 19 21 25 28 31 35 40
22 40 36 22 22 26 27 26 32 34 33 14 33 39 48 57 38 35 24 12 24 28 26 20 20 25 28 19 14 14 14 18 22 24 25 23 18 17 18 23 31 36 39 42
32 35 42 31 25 32 31 31 15 11 3 6 12 32 30 54 62 56 41 34 37 34 30 31 31 30 17 11 5 5 6 8 11 13 16 17 19 23 26 26 31 36 41 44
31 28 37 25 32 35 30 26 29 29 24 10 16 22 47 52 49 46 44 35 34 34 39 44 50 47 29 28 28 23 16 15 15 16 19 22 24 27 29 29 33 36 40 46
34 35 33 52 41 35 33 39 36 28 17 35 31 26 43 41 43 52 53 48 42 39 47 49 45 37 30 33 40 36 34 38 40 40 39 41 41 36 39 34 36 40 43 50
21 18 8 12 21 23 25 27 27 29 30 28 20 17 36 40 39 49 54 51 50 43 38 39 38 40 41 43 48 49 52 51 51 51 51 49 48 46 43 40 41 43 47 49
38 35 30 25 29 37 35 36 39 32 28 33 35 42 42 40 40 42 47 49 56 61 58 51 51 53 52 52 53 59 57 52 51 58 56 57 54 47 47 43 43 42 42 44
45 39 39 44 41 35 33 36 40 46 43 32 42 43 39 52 56 58 62 63 68 64 58 55 54 52 53 54 52 53 56 55 54 53 53 52 52 51 45 48 44 42 41 42
28 25 26 38 40 46 43 47 52 50 53 44 40 37 38 41 46 47 41 45 51 57 59 52 46 38 36 45 50 51 54 54 50 49 51 53 52 55 59 58 53 49 50 48
41 36 34 38 40 29 29 47 42 43 45 43 42 41 41 32 32 30 29 30 32 35 39 42 41 38 36 38 45 47 48 52 52 54 54 56 58 57 57 57 59 63 65 60
43 43 38 36 37 20 36 32 25 22 23 27 28 28 24 25 28 28 31 33 36 39 44 47 48 50 50 46 41 42 43 47 52 55 61 62 61 58 54 58 58 59 61 65
48 48 27 19 25 30 36 31 30 28 26 26 25 24 25 30 35 37 38 39 43 47 52 55 56 56 55 55 57 53 48 44 44 46 50 51 55 56 58 56 60 61 64 67
17 18 26 16 7 6 17 25 23 31 26 23 18 32 38 38 43 48 45 45 48 50 50 51 52 54 51 49 53 57 54 52 54 51 49 47 42 42 45 52 57 61 60 62
23 22 27 33 15 18 22 29 32 13 14 21 34 38 38 38 40 44 48 49 49 49 49 51 51 51 52 51 50 50 51 50 51 52 55 55 54 48 42 43 46 46 49 54
16 14 18 11 8 12 21 20 19 28 40 41 38 42 39 39 44 47 49 51 52 51 51 48 48 49 49 49 50 50 49 51 51 50 52 52 54 58 58 50 43 36 36 50
22 29 20 18 26 36 38 41 35 36 41 39 43 40 42 45 48 50 52 53 52 52 49 48 52 54 55 55 58 60 57 56 54 53 50 51 51 49 47 54 55 48 41 35
40 37 40 40 43 36 36 37 39 36 37 37 39 43 46 48 50 51 52 52 54 54 54 55 58 61 64 63 65 67 68 67 64 60 57 53 52 50 50 45 50 56 54 48
39 38 39 40 45 41 42 35 33 37 37 40 44 46 47 49 49 50 53 55 56 57 56 59 64 68 72 74 76 74 73 73 72 70 65 62 57 55 52 51 47 50 54 52
46 47 40 42 40 42 40 39 40 41 44 45 44 44 45 47 52 54 55 54 56 59 62 66 70 74 78 81 83 82 79 77 77 77 73 67 64 56 55 53 50 47 49 51
Wind_Direction
270 265 264 276 283 289 287 286 286 287 294 291 290 291 294 293 287 288 291 295 296 299 294 292 281 276 273 265 260 260 260 260 261 264 267 264 263 258 258 259 253 251 251 250
268 266 280 286 283 284 283 284 284 290 296 296 297 292 291 293 294 294 299 299 303 295 310 344 324 296 286 274 265 261 260 260 261 264 265 260 257 256 255 253 250 247 247 247
271 277 281 279 277 280 280 281 288 291 301 295 297 296 303 298 299 303 294 313 323 357 334 334 309 298 293 291 286 277 273 271 272 267 260 260 255 254 253 253 251 247 244 243
276 281 281 277 278 286 282 297 297 295 299 292 296 297 298 312 313 301 303 299 333 324 319 309 312 303 284 270 274 275 277 275 273 271 263 263 260 257 258 255 255 252 248 242
273 280 285 288 293 290 287 293 284 287 288 293 298 263 295 302 305 318 245 189 294 302 299 313 310 292 284 270 266 271 270 275 270 266 266 273 266 261 256 251 247 243 239 234
271 278 286 298 301 297 293 283 277 276 273 276 276 243 290 303 85 141 261 298 310 309 305 299 290 285 286 281 283 273 266 271 272 269 268 262 259 262 260 253 248 240 229 227
279 282 284 290 292 291 276 261 288 276 168 235 282 243 262 273 288 292 284 294 302 301 293 298 301 303 305 294 270 270 259 278 278 269 266 261 259 256 254 250 244 235 231 230
288 292 289 282 278 277 276 251 207 218 253 283 290 258 272 282 285 299 309 302 295 287 288 300 308 300 329 308 271 248 258 259 264 256 253 252 252 243 245 247 244 239 239 234
283 276 282 268 268 264 259 239 266 254 263 273 269 267 276 289 296 303 323 309 304 293 279 292 319 325 339 322 286 264 246 252 254 251 250 240 227 255 265 269 254 241 236 234
269 266 278 276 257 247 246 258 252 234 243 243 233 261 270 289 292 299 304 293 288 276 282 284 293 296 299 317 335 169 188 222 247 255 248 249 257 263 270 268 268 260 246 236
266 256 257 261 253 255 249 240 255 263 253 254 267 261 275 280 293 301 305 299 283 274 275 278 289 290 299 268 280 282 270 256 252 238 235 249 262 266 270 272 268 264 255 242
278 276 256 264 263 264 258 267 266 245 255 252 263 264 258 266 281 294 296 295 294 286 279 287 285 285 280 279 269 275 281 274 277 277 275 278 276 266 260 263 265 260 251 249
264 246 276 279 283 272 254 254 259 275 275 260 262 273 282 294 284 281 284 286 288 288 285 281 277 281 281 281 282 275 274 272 279 276 280 283 280 274 273 266 255 253 253 255
276 273 271 272 271 281 275 271 280 286 269 281 274 283 280 278 275 268 275 283 290 288 287 284 276 277 281 280 277 276 282 280 269 270 273 272 276 277 276 260 251 247 245 250
272 277 276 272 270 268 274 276 276 280 277 272 282 288 288 287 288 287 289 289 293 289 285 283 280 279 274 272 273 275 277 278 276 273 269 269 269 268 274 267 249 244 249 255
265 267 271 276 267 281 291 287 280 276 277 281 288 281 280 281 284 283 281 275 272 277 284 288 284 283 280 279 276 270 271 270 266 268 276 278 278 276 273 272 259 255 256 252
276 277 278 277 284 291 282 273 279 280 283 276 270 275 275 271 271 276 280 286 291 288 289 296 291 290 296 289 282 275 268 270 274 277 277 277 279 279 276 271 265 260 264 262
276 275 272 274 284 272 274 282 274 271 268 265 261 252 262 282 288 295 295 305 302 302 307 307 311 304 304 301 298 289 281 280 283 281 282 279 278 277 271 266 262 260 261 261
266 266 262 255 247 264 271 270 273 280 284 280 280 282 288 289 290 299 304 303 302 303 304 307 307 306 306 305 302 301 298 294 284 278 271 267 265 265 269 269 266 263 262 254
245 243 231 233 237 230 272 282 293 298 290 279 298 310 317 316 309 298 308 310 308 309 310 310 307 306 305 304 301 300 299 301 298 291 289 280 268 262 258 259 262 262 259 258
258 242 228 242 254 262 270 284 286 279 283 306 306 309 311 308 307 310 309 309 308 308 308 308 305 304 302 302 299 296 294 295 294 292 287 288 288 279 272 262 255 257 256 255
251 250 248 263 271 282 282 273 280 293 297 300 301 307 303 304 305 306 305 304 306 306 306 306 305 303 302 302 301 299 297 295 292 288 286 284 283 285 284 280 272 263 269 259
253 256 268 264 264 274 277 285 291 297 301 291 297 303 303 303 303 303 304 303 303 301 300 300 300 300 298 299 299 298 298 296 294 293 283 281 279 274 274 279 281 280 276 265
266 268 268 278 280 285 294 297 297 299 300 298 296 300 300 302 303 303 302 302 300 297 297 299 297 296 296 296 295 295 296 297 294 290 288 283 276 273 269 263 269 275 278 284
277 278 278 277 286 294 299 302 301 299 295 296 296 298 302 302 302 303 301 301 303 299 296 296 296 296 296 297 295 294 293 291 291 290 289 285 281 275 272 264 261 263 267 267
275 277 271 283 300 299 300 302 298 295 297 298 298 299 299 301 303 304 303 304 304 302 301 300 299 297 295 293 293 292 290 287 285 285 286 282 279 275 272 267 258 258 259 254
Height
3122 3119 3118 3121 3125 3122 3118 3115 3109 3109 3112 3101 3094 3085 3088 3091 3091 3088 3087 3085 3084 3082 3082 3081 3080 3079 3078 3077 3075 3077 3078 3079 3078 3078 3080 3081 3083 3084 3086 3087 3089 3092 3094 3097
3114 3110 3116 3118 3117 3117 3114 3108 3102 3097 3102 3097 3085 3069 3076 3081 3079 3080 3079 3076 3075 3074 3074 3074 3072 3072 3070 3068 3067 3067 3068 3069 3069 3070 3071 3071 3074 3075 3077 3078 3079 3081 3084 3087
3106 3108 3111 3110 3108 3108 3107 3106 3098 3094 3093 3087 3076 3052 3065 3069 3070 3071 3070 3070 3068 3068 3067 3067 3066 3065 3063 3062 3060 3059 3059 3060 3060 3061 3061 3062 3063 3064 3065 3067 3069 3071 3075 3078
3100 3102 3101 3101 3099 3103 3095 3102 3096 3092 3089 3082 3080 3041 3049 3057 3062 3065 3063 3066 3066 3064 3063 3062 3061 3059 3055 3054 3054 3052 3051 3050 3050 3052 3053 3053 3055 3056 3059 3061 3063 3065 3067 3070
3096 3096 3096 3094 3096 3096 3087 3089 3089 3086 3082 3077 3074 3074 3042 3051 3052 3055 3058 3060 3060 3060 3057 3056 3054 3049 3047 3045 3042 3042 3043 3044 3043 3044 3047 3047 3047 3048 3050 3051 3053 3054 3056 3060
3090 3090 3089 3090 3089 3088 3087 3083 3083 3082 3077 3073 3067 3071 3011 3046 3049 3050 3054 3057 3057 3056 3052 3048 3045 3041 3038 3036 3035 3035 3035 3037 3039 3039 3039 3038 3039 3041 3042 3043 3044 3045 3047 3050
3086 3084 3081 3083 3083 3080 3081 3080 3077 3078 3079 3065 3059 3063 3040 3045 3049 3046 3045 3047 3049 3048 3045 3044 3039 3035 3031 3027 3026 3027 3029 3029 3031 3031 3032 3032 3032 3033 3034 3035 3036 3038 3041 3044
3072 3066 3076 3076 3075 3073 3071 3073 3071 3072 3069 3058 3057 3047 3027 3043 3043 3041 3037 3038 3039 3040 3039 3037 3034 3030 3025 3020 3017 3018 3020 3020 3020 3021 3023 3025 3026 3026 3026 3028 3030 3033 3034 3036
3066 3055 3060 3064 3066 3068 3063 3060 3064 3056 3056 3055 3047 3038 3032 3029 3031 3033 3032 3035 3039 3038 3033 3025 3027 3025 3020 3015 3013 3013 3014 3014 3015 3015 3016 3019 3019 3022 3022 3022 3023 3024 3025 3028
3061 3055 3050 3053 3054 3054 3054 3056 3052 3053 3052 3046 3034 3031 3028 3021 3020 3027 3027 3030 3029 3026 3021 3016 3018 3019 3016 3010 3007 3002 3002 3003 3006 3008 3011 3014 3014 3014 3015 3015 3016 3018 3020 3020
3057 3051 3045 3045 3041 3043 3045 3042 3042 3040 3040 3032 3026 3023 3028 3024 3023 3021 3020 3017 3018 3017 3014 3010 3007 3007 3008 3006 3002 3002 3000 2999 2997 2994 2995 2998 3002 3005 3006 3006 3008 3010 3011 3013
3048 3040 3037 3031 3035 3035 3032 3033 3035 3030 3022 3018 3014 3010 3017 3019 3019 3015 3008 3005 3004 3007 3006 3003 3001 2998 2997 2995 2994 2993 2991 2989 2989 2991 2992 2993 2992 2993 2992 2992 2997 2999 3001 3002
3036 3030 3022 3021 3025 3023 3022 3023 3024 3022 3016 3008 3007 3001 3011 3014 3011 3002 2998 2995 2992 2993 2992 2992 2991 2989 2987 2985 2983 2982 2982 2980 2980 2979 2978 2980 2980 2980 2978 2981 2983 2983 2987 2991
3029 3021 3022 3019 3018 3022 3019 3018 3014 3015 3007 3000 2999 2998 3001 2996 2995 2994 2987 2981 2982 2979 2976 2973 2976 2976 2974 2973 2970 2967 2966 2967 2968 2967 2964 2965 2966 2965 2964 2966 2967 2968 2971 2974
3020 3012 3014 3008 3009 3011 3008 3005 3004 3001 3000 2997 2990 2990 2989 2985 2984 2984 2983 2978 2971 2966 2964 2960 2958 2959 2960 2959 2959 2955 2953 2951 2950 2949 2952 2953 2952 2951 2950 2953 2953 2953 2955 2958
3008 3005 3006 2999 3000 2999 2996 2994 2989 2989 2984 2982 2983 2980 2973 2973 2972 2969 2965 2963 2960 2955 2950 2949 2946 2942 2942 2942 2943 2942 2940 2938 2936 2934 2935 2935 2934 2935 2937 2938 2939 2938 2940 2940
3002 3000 2997 2988 2993 2991 2985 2978 2978 2974 2974 2973 2970 2968 2965 2965 2963 2960 2959 2955 2950 2946 2944 2939 2934 2932 2932 2931 2930 2929 2927 2923 2920 2918 2918 2916 2914 2916 2919 2919 2920 2923 2925 2926
2991 2992 2990 2983 2987 2980 2967 2969 2965 2964 2962 2961 2960 2958 2956 2954 2954 2953 2950 2946 2943 2938 2934 2931 2925 2923 2923 2922 2919 2914 2912 2908 2905 2903 2902 2900 2896 2898 2900 2901 2900 2900 2903 2907
2982 2983 2978 2977 2973 2963 2963 2963 2961 2958 2955 2955 2953 2951 2950 2949 2945 2944 2941 2939 2935 2931 2926 2921 2917 2913 2911 2908 2903 2900 2897 2895 2892 2890 2889 2886 2885 2883 2883 2881 2881 2881 2882 2883
2970 2970 2972 2969 2963 2960 2953 2954 2952 2948 2946 2947 2947 2944 2942 2939 2935 2933 2931 2928 2925 2921 2917 2912 2907 2902 2899 2895 2890 2885 2882 2880 2880 2878 2877 2876 2871 2868 2865 2862 2863 2862 2863 2865
2965 2964 2960 2957 2954 2949 2948 2949 2946 2948 2949 2944 2941 2938 2935 2931 2928 2923 2921 2917 2914 2910 2906 2901 2896 2890 2886 2881 2876 2872 2869 2868 2865 2863 2862 2860 2858 2853 2851 2848 2846 2847 2847 2849
2958 2957 2953 2952 2950 2947 2945 2946 2946 2944 2938 2936 2932 2929 2925 2921 2917 2914 2910 2905 2901 2897 2893 2890 2883 2878 2875 2870 2864 2859 2857 2852 2848 2846 2843 2841 2840 2839 2837 2837 2836 2833 2833 2833
2952 2950 2950 2951 2942 2942 2941 2939 2938 2935 2931 2926 2922 2920 2916 2911 2907 2902 2897 2893 2889 2884 2881 2877 2870 2865 2862 2858 2852 2844 2841 2836 2832 2828 2824 2822 2822 2821 2823 2821 2821 2820 2820 2821
2940 2943 2940 2939 2930 2932 2932 2930 2928 2926 2921 2917 2914 2909 2905 2900 2896 2890 2885 2880 2876 2871 2865 2860 2855 2849 2843 2842 2836 2829 2822 2815 2811 2808 2806 2805 2803 2803 2804 2804 2803 2804 2805 2808
2931 2931 2928 2924 2921 2922 2920 2918 2917 2914 2911 2908 2904 2899 2894 2888 2884 2878 2872 2867 2861 2855 2851 2844 2837 2830 2823 2819 2812 2810 2805 2797 2791 2787 2786 2785 2785 2784 2784 2784 2784 2785 2790 2793
2921 2918 2919 2913 2915 2914 2910 2908 2905 2902 2900 2896 2893 2889 2885 2878 2871 2865 2859 2854 2847 2840 2833 2825 2818 2809 2802 2795 2788 2783 2777 2773 2769 2766 2766 2764 2762 2764 2764 2763 2765 2768 2771 2775